Location: Staunton
(38.1490°N, 79.0720°W)
Time: 14:33:14
(UTC-04:00)

ISS - Visible Passes

Search period start: 01 August 2021 00:00
Search period end: 11 August 2021 00:00
Orbit: 419 x 421 km, 51.6° (Epoch: 01 August)

Date Brightness Start Highest point End Pass type
(mag) Time Alt. Az. Time Alt. Az. Time Alt. Az.
01 Aug -2.9 21:04:58 10° NW 21:08:10 40° NNE 21:11:09 11° ESE visible
01 Aug -1.5 22:42:17 10° W 22:44:07 18° WSW 22:44:07 18° WSW visible
02 Aug -2.6 21:54:32 10° WNW 21:57:38 34° SW 21:58:43 27° S visible
03 Aug -3.5 21:07:04 10° NW 21:10:25 64° SW 21:13:24 12° SE visible
04 Aug -1.0 21:58:38 10° WSW 21:59:32 11° SW 22:00:25 10° SW visible
05 Aug -1.5 21:09:58 10° W 21:12:27 19° SW 21:14:55 10° S visible
